Погода в Баутцене

Германия     51°10′50″N   14°25′40″E
темп.,
°C
ветер,
м/с
пор.,
м/с
влажн.,
%
обл.,
%
осадки,
мм/ч
давл.,
гПа
погр.,
м
15 мая, сб
сб1523:00+8юз22915 0.0 100912
02:00+7ююз22925 0.0 100911
05:00+7ююз22915 0.0 100814
08:00+12юз377713 0.0 1009372
11:00+15зюз5766100 0.3 10091284
14:00+16юз3560100 0.7 10071386
17:00+16ю3561100 0.9 10061100
20:00+12ююз3782100 2.2 1006118
16 мая, вс
вс1623:00+9юз228897 0.6 100620
02:00+9зюз51092100 1.0 1006412
05:00+8юз3892100 1.3 1006222
08:00+11юз377922 1.3 1006570
11:00+13зюз5674100 0.7 10061044
14:00+14юз347040 1.6 10051072
17:00+14зсз337392 1.6 1004586
20:00+12юз2279100 2.0 100415
17 мая, пн
пн1723:00+9юз33905 0.3 100429
02:00+8ююз349135 0.3 100570
05:00+8ююз4992100 0.3 1005230
08:00+11юз578289 1.4 1005809
11:00+13зюз787299 0.8 10051340
14:00+12з6107899 1.5 1006986
17:00+12зюз71174100 0.3 10071310
20:00+11зюз61182100 0.3 1007801
18 мая, вт
вт1823:00+8юз512875 0.0 1008408
02:00+8юз513805 0.0 1008426
05:00+9юз6127798 0.1 1007639
08:00+11зюз61078100 0.1 1009856
11:00+12зюз7976100 0.3 10091160
14:00+12з6980100 1.1 10101236
17:00+14з797096 0.4 10101446
20:00+9зюз81385100 0.9 1012891
19 мая, ср
ср1923:00+8зюз51288100 0.2 1013551
02:00+9зюз61189100 0.3 1013499
05:00+6зюз512955 0.0 1014363
08:00+9з698236 0.0 1015711
11:00+12з68635 0.2 10151440
14:00+13з6864100 1.2 10151680
17:00+13з686989 1.2 10151406
20:00+10з51087100 2.4 1016471